Find Starlink 3970

NORAD ID: 52706 Int'l Des: 2022-053 Owner: SPXS Country: US Constellation: starlink operational
LEOCIRCULAR

Live-Position

3D-Globus wird geladen...

Über Starlink 3970

Beschreibung wird geladen...

Nächste Überflüge

Passes for default location (London). Set your location on the main map for personalized predictions.

Höhenverlauf

Loading altitude history...

Zweizeiliger Elementsatz

1 52706U 22053BC 26106.04142972 -.00000722 00000-0 -27266-4 0 9996
2 52706 53.2185 326.4414 0001209 84.1475 275.9654 15.08830737216954
Epoch: 16. Apr. 2026 • Age: 17 hours

Aktueller Status

Höhe 557.4 km
Geschwindigkeit 7.58 km/s
Subsatellitenpunkt -48.91°S, 86.94°E
Startdatum 18. Mai 2022
Alter 3.9 years
Typ internet

Technische Details

Klassifizierung Payload
Masse 297.00 kg
Trockenmasse 275.00 kg
Gesamtmasse 297.00 kg
Länge 0.20 m
Durchmesser 2.80 m
Spannweite 9.00 m
Form Box + pan
Hersteller SPXS
Bus-Typ Starlink
Phasenstatus In Orbit
Besitzer/Staat SPXS/US

Most Searched